Powrót do katalogu

CZ-6A DEB

AktywnyPO
NORAD 61076·DEBRIS·🇨🇳 China

Wystrzelony Aug 6, 2024 z Taiyuan Satellite Launch Center

Loading…

Następne Przeloty (najbliższe 24 godziny)

TLE

ŚwieżeSource: Space-Track

Epoka: Sep 14, 2026, 06:54 UTC

1 61076U 24140MS  26257.28795887  .00000373  00000-0  16778-3 0  9992
2 61076  89.0107 266.0330 0045738 245.7547 113.8860 14.19861910106798

Śledź CZ-6A DEB w czasie rzeczywistym z AllMySat

Download on the App Store